Regional Weather Roundup
Issued by NWS Sioux Falls, SD

Home | Current Version | Previous Version | Graphics & Text | Print | Product List | Glossary Off
Versions: 1 2 3 4 5 6 7 8 9 10 11 12 13 14 15 16 17 18 19 20 21 22 23 24 25 26 27 28 29 30 31 32 33 34 35 36 37 38 39 40 41 42 43 44 45 46 47 48 49 50

000
ASUS43 KFSD 300210
RWRFSD

WEATHER ROUNDUP FOR SE SOUTH DAKOTA/SW MINNESOTA/NW IOWA
NATIONAL WEATHER SERVICE SIOUX FALLS SD
900 PM CDT THU SEP 29 2016

NOTE: "FAIR" INDICATES FEW OR NO CLOUDS BELOW 12,000 FEET WITH NO
SIGNIFICANT WEATHER AND OR OBSTRUCTIONS TO VISIBILITY.


SDZ038>040-050-052>070-300300-
SOUTHEAST SOUTH DAKOTA

CITY           SKY/WX    TMP DP  RH WIND       PRES   REMARKS
BROOKINGS      CLEAR     57  48  72 E7        30.36R
CHAMBERLAIN    CLEAR     57  48  72 SE8       30.30S
HURON          CLEAR     58  46  64 SE7       30.33R
MADISON        FAIR      54  48  82 CALM      30.35S
MITCHELL       CLEAR     55  46  71 S5        30.34R
SIOUX FALLS    CLEAR     55  49  80 CALM      30.35R
WINNER         FAIR      54  44  69 SE10      30.28S
YANKTON        CLEAR     57  46  67 CALM      30.32R
$$

MNZ071-072-080-081-089-090-097-098-300300-
SOUTHWEST MINNESOTA

CITY           SKY/WX    TMP DP  RH WIND       PRES   REMARKS
FAIRMONT       CLEAR     55  48  77 NE5       30.38R
JACKSON        CLEAR     52  45  76 E6        30.38S
LUVERNE        CLEAR     52  45  76 E6        30.36S
MARSHALL       CLEAR     57  48  72 E6        30.37S
MONTEVIDEO     CLEAR     54  46  76 SE6       30.39S
PIPESTONE      CLEAR     55  46  71 E3        30.36S
REDWOOD FALLS  CLEAR     57  48  72 E6        30.38S
TRACY          CLEAR     54  49  84 CALM      30.38S
WINDOM         CLEAR     54  46  76 NE3       30.38S
WORTHINGTON    CLEAR     51  47  86 E3        30.38S
$$

IAZ001>003-012>014-020>022-031-032-NEZ013-014-SDZ071-300300-
NORTHWEST IOWA

CITY           SKY/WX    TMP DP  RH WIND       PRES   REMARKS
CHEROKEE       CLEAR     53  48  85 CALM      30.36R
DENISON        CLEAR     52  46  82 CALM      30.33R
ESTHERVILLE    CLEAR     50  46  86 NE7       30.37R
LE MARS        CLEAR     63  46  55 E9        30.35S
SHELDON        CLEAR     50  46  87 E5        30.35R
SIOUX CITY     CLEAR     61  48  62 E8        30.33S
SPENCER        CLEAR     51  46  83 E5        30.36S
STORM LAKE     CLEAR     55  48  76 NE7       30.36R
$$

ABBREVIATIONS USED IN REMARKS
   TC - TEMPERATURE IN CELSIUS
  WCI - WIND CHILL INDEX
   HX - HEAT INDEX
  VSB - VISIBILITY




USA.gov is the U.S. government's official web portal to all federal, state and local government web resources and services.